Tracking 31027 objects as of 19-Jul-2025
HD Live streaming from Space Station
objects crossing your sky now

STARLINK-3077

Track STARLINK-3077 now!
10-day predictions
STARLINK-3077 is classified as:


NORAD ID: 49133
Int'l Code: 2021-082D
Perigee: 576.8 km
Apogee: 581.5 km
Inclination: 70.0 °
Period: 96.1 minutes
Semi major axis: 6950 km
RCS: Unknown
Launch date: September 14, 2021
Source: United States (US)
Launch site: AIR FORCE WESTERN TEST RANGE (AFWTR)
Your satellite tracking list
PRISMA
Track 1 satellite(s)




NASA's NSSDC Master Catalog

Two Line Element Set (TLE):
1 49133U 21082D   25199.32804701  .00000686  00000-0  65287-4 0  9996
2 49133  69.9995 165.3626 0003394 266.6248  93.4523 14.98331605210875
Source of the keplerian elements: AFSPC